STARLINK-1739 (46363 NORAD) Tracking and Keplerian Element Data

This shows tracking and keplerian element data for the satellite.

Feedback or suggestion? Click here.




ElementValue
Catalog46363
NameSTARLINK-1739
Epoch Orbit184
Epoch Day338.66668981
Epoch Year2020
RAAN342.9345
Inclination52.998
Eccentricity0.0002239
Argument of Perigee15.4942
Mean Anonmoly76.2501
Mean Motion15.62734603
Decay Rate0.00019712
L11 46363U 20062AQ 20338.66668981 .00019712 00000-0 22074-3 0 9996
L22 46363 52.9980 342.9345 0002239 15.4942 76.2501 15.62734603 1849

Live tracking and technical data element details for STARLINK-1739 (NORAD 46363). STARLINK-1739 can be tracked NOW for your location showing map with azimuth and elevation plus other details from your city location.

Track the satellite on the map from your city or location and see movement details for azimuth, elevation, latitude, longitude, range, height, and movement on the map or in text.







IsCatalogInMostPopularTable: catalog: 46363, numindb: 34
Update: records affected: 1



GetName: 46363 STARLINK-1739

Hit Count: updated at: Sun, 06 Dec 2020 02:12:51 GMT